[[{"header":{"parameterUnit":"m.s-1","parameterCategory":1,"la1":30.2991,"la2":30.254,"lo1":-89.0895,"lo2":-89.0444,"dy":0.0017,"dx":0.0017,"nx":28,"ny":28,"refTime":"2024-02-07T09:00:00:Z","depth":0,"parameterNumber":2,"parameterNumberName":"U-component_of_WINDS"},"data":[0,0,0,0,0,0,0,0,0,0,0,0,0,0,0,0,0,0,0,0,0,0,0,0,0,0,0,0,0,0,0,0,0,0,0,0,0,0,0,0,0,0,0,0,0,0,0,0,0,0,0,0,0,0,0,0,0,0,-3.4035,-3.4035,0,-3.4062,-3.4062,-3.4062,-3.403,-3.4029,-3.4028,-3.4027,-3.4054,-3.4056,-3.4057,0,0,0,0,0,0,0,0,0,0,0,0,0,-3.3956,-3.3958,-3.4035,-3.4035,-3.4035,-3.4062,-3.4062,-3.4062,-3.4031,-3.4029,-3.4028,-3.4026,-3.4053,-3.4055,-3.4058,0,0,0,0,0,0,0,0,0,0,0,0,0,-3.3987,-3.3958,-3.4034,-3.4023,-3.4022,-3.4061,-3.4062,-3.4062,-3.4031,-3.4029,-3.4027,-3.4026,-3.4052,-3.4055,-3.4058,-3.411,0,0,-3.4066,-3.4067,0,0,0,0,0,0,0,0,-3.3985,-3.399,-3.4024,-3.4024,-3.4023,-3.4041,-3.4044,-3.4078,-3.4031,-3.4027,-3.4027,-3.4025,-3.4051,-3.4054,-3.4063,-3.4111,-3.4113,-3.4066,-3.4068,-3.4069,-3.407,0,0,0,0,0,0,0,-3.3983,-3.3989,-3.4045,-3.4025,-3.4024,-3.4016,-3.4019,-3.405,-3.4049,-3.4028,-3.4025,-3.4029,-3.405,-3.406,-3.4063,-3.4113,-3.4066,-3.4069,-3.407,-3.4071,-3.4207,-3.4209,0,0,0,0,0,0,-3.3983,-3.3987,-3.4044,-3.4046,-3.3999,-3.4019,-3.4022,-3.4037,-3.4048,-3.4048,-3.4031,-3.4028,-3.4056,-3.406,-3.4064,-3.4126,-3.4069,-3.4072,-3.4073,-3.4205,-3.4208,-3.421,0,0,0,0,0,0,-3.3981,-3.3988,-3.4043,-3.4016,-3.4023,-3.4022,-3.4039,-3.4038,-3.4048,-3.4051,-3.405,-3.4041,-3.4055,-3.406,-3.4099,-3.4126,-3.4073,-3.4075,-3.4203,-3.4206,-3.4209,-3.425,0,0,0,0,0,0,-3.3979,-3.3988,-3.4007,-3.4017,-3.4024,-3.4078,-3.4041,-3.404,-3.4053,-3.4049,-3.406,-3.406,-3.4054,-3.4095,-3.4102,-3.4129,-3.4078,-3.42,-3.4204,-3.4208,-3.4246,-3.4254,-3.4261,0,0,0,0,0,-3.3976,-3.4017,-3.4008,-3.4015,-3.4049,-3.408,-3.4084,-3.4076,-3.4055,-3.4075,-3.4077,-3.406,-3.4123,-3.41,-3.4107,-3.4135,-3.4199,-3.4203,-3.4207,-3.4243,-3.4252,-3.426,0,0,0,0,0,0,-3.401,-3.4018,-3.4008,-3.4054,-3.4066,-3.4074,-3.4098,-3.4086,-3.4104,-3.41,-3.409,-3.4093,-3.4134,-3.4139,-3.4113,-3.4187,-3.4157,-3.4163,-3.4182,-3.4191,-3.4198,-3.4195,-3.408,0,0,0,0,0,-3.4023,-3.4047,-3.4053,-3.4093,-3.41,-3.4099,-3.4112,-3.4105,-3.4117,-3.4122,-3.4127,-3.414,-3.4162,-3.4177,-3.4198,-3.4248,-3.425,-3.4271,-3.4278,-3.4284,-3.4289,-3.4316,-3.4325,-3.4224,-3.4224,-3.4224,0,0,-3.4049,-3.4057,-3.4073,-3.41,-3.4109,-3.4134,-3.4103,-3.4131,-3.415,-3.4126,-3.4163,-3.4168,-3.4181,-3.4226,-3.4246,-3.4231,-3.4318,-3.429,-3.4295,-3.4296,-3.4321,-3.4331,-3.4339,-3.4227,-3.4227,-3.4226,0,0,-3.411,-3.4119,-3.4152,-3.4163,-3.4177,-3.4176,-3.4185,-3.4195,-3.4197,-3.4235,-3.4218,-3.4241,-3.428,-3.429,-3.4301,-3.4369,-3.4353,-3.4376,-3.4413,-3.4439,-3.4447,-3.4454,-3.4478,-3.4486,-3.4381,-3.4381,-3.4381,0,-3.414,-3.4178,-3.4171,-3.4201,-3.4214,-3.4195,-3.423,-3.424,-3.426,-3.4269,-3.4253,-3.4303,-3.4311,-3.4358,-3.4374,-3.4384,-3.4393,-3.4373,-3.4447,-3.4454,-3.446,-3.4482,-3.4491,-3.4384,-3.4384,-3.4383,-3.4383,0,-3.4215,-3.4242,-3.4268,-3.4289,-3.4305,-3.4337,-3.4335,-3.4352,-3.4345,-3.4346,-3.4385,-3.4394,-3.4417,-3.4428,-3.4421,-3.4475,-3.4465,-3.4448,-3.4418,-3.4472,-3.4493,-3.4502,-3.4388,-3.4387,-3.4386,-3.4385,0,0,-3.4294,-3.4313,-3.4323,-3.4332,-3.4348,-3.4369,-3.4401,-3.4424,-3.4438,-3.4454,-3.448,-3.4516,-3.45,-3.4513,-3.4507,-3.4531,-3.4583,-3.4511,-3.4511,-3.4523,-3.4643,-3.4654,-3.4664,-3.4575,-3.4576,-3.4578,-3.4641,0,-3.4355,-3.441,-3.4406,-3.4457,-3.4482,-3.4467,-3.4495,-3.4508,-3.451,-3.4532,-3.4535,-3.456,-3.4539,-3.4546,-3.4569,-3.4572,-3.4607,-3.4568,-3.4598,-3.4599,-3.4593,-3.4675,-3.4686,-3.4746,-3.4649,-3.4651,-3.4652,0,-3.4431,-3.445,-3.4505,-3.4518,-3.4529,-3.4554,-3.4575,-3.4596,-3.4611,-3.4612,-3.4627,-3.4618,-3.4651,-3.4622,-3.4667,-3.464,-3.4653,-3.4657,-3.466,-3.466,-3.4627,-3.4676,-3.4764,-3.4773,-3.4665,-3.4664,-3.4663,0,-3.4482,-3.4522,-3.456,-3.4569,-3.4586,-3.4604,-3.4612,-3.4625,-3.464,-3.4659,-3.4668,-3.4691,-3.4703,-3.4722,-3.4719,-3.4699,-3.4765,-3.4736,-3.4766,-3.4766,-3.4778,-3.4777,-3.4868,-3.479,-3.479,-3.479,-3.479,0,-3.4548,-3.4582,-3.4583,-3.4606,-3.4644,-3.464,-3.4677,-3.4683,-3.4696,-3.472,-3.4709,-3.4732,-3.4729,-3.4752,-3.4751,-3.4788,-3.4794,-3.4795,-3.4794,-3.4795,-3.4795,-3.4801,-3.4796,-3.4792,-3.4792,-3.4791,-3.4791,0,-3.461,-3.4612,-3.4652,-3.4666,-3.4671,-3.4698,-3.4709,-3.4731,-3.4735,-3.4765,-3.4773,-3.4777,-3.4804,-3.4805,-3.4836,-3.4835,-3.488,-3.4876,-3.4875,-3.4873,-3.4903,-3.4899,-3.4999,-3.5012,-3.4928,-3.4928,-3.4929,0,-3.4651,-3.4677,-3.4694,-3.4709,-3.4719,-3.4744,-3.4759,-3.4757,-3.4774,-3.4794,-3.4814,-3.484,-3.4861,-3.4905,-3.4911,-3.4935,-3.493,-3.4964,-3.4933,-3.4934,-3.4929,-3.4926,-3.4929,-3.4968,-3.4969,-3.497,-3.4971,0,-3.4723,-3.4724,-3.4746,-3.477,-3.4788,-3.4807,-3.4824,-3.4837,-3.4838,-3.4857,-3.4885,-3.4901,-3.4933,-3.4959,-3.4983,-3.4992,-3.4981,-3.4981,-3.4989,-3.4989,-3.4987,-3.4987,-3.4889,-3.4978,-3.4977,-3.4977,-3.4976,-3.4976,-3.4775,-3.4797,-3.4813,-3.4839,-3.4852,-3.4868,-3.489,-3.4897,-3.492,-3.4946,-3.4944,-3.4975,-3.4992,-3.5022,-3.5033,-3.5058,-3.5046,-3.5058,-3.506,-3.5063,-3.5065,-3.4985,-3.5062,-3.5062,-3.5062,-3.5062,-3.5062,0,-3.4845,-3.4855,-3.4879,-3.4904,-3.4924,-3.4915,-3.4934,-3.4951,-3.4979,-3.4995,-3.5016,-3.5049,-3.5075,-3.5085,-3.511,-3.5128,-3.5124,-3.5134,-3.5132,-3.5134,-3.5075,-3.5065,-3.5137,-3.5137,-3.5137,-3.5137,-3.5137,-3.5137,-3.4883,-3.4921,-3.4923,-3.4968,-3.4978,-3.5008,-3.502,-3.5035,-3.5048,-3.5085,-3.5107,-3.5114,-3.5128,-3.5154,-3.5178,-3.518,-3.5189,-3.5202,-3.5202,-3.5146,-3.5138,-3.5131,-3.5121,-3.5204,-3.5204,-3.5259,-3.5259,-3.5259]},{"header":{"parameterUnit":"m.s-1","parameterCategory":1,"la1":30.2991,"la2":30.254,"lo1":-89.0895,"lo2":-89.0444,"dy":0.0017,"dx":0.0017,"nx":28,"ny":28,"refTime":"2024-02-07T09:00:00:Z","depth":0,"parameterNumber":3,"parameterNumberName":"V-component_of_WINDS"},"data":[0,0,0,0,0,0,0,0,0,0,0,0,0,0,0,0,0,0,0,0,0,0,0,0,0,0,0,0,0,0,0,0,0,0,0,0,0,0,0,0,0,0,0,0,0,0,0,0,0,0,0,0,0,0,0,0,0,0,1.4568,1.4568,0,1.4574,1.4574,1.4574,1.4593,1.4593,1.4593,1.4594,1.4597,1.4597,1.4597,0,0,0,0,0,0,0,0,0,0,0,0,0,1.4573,1.4573,1.4568,1.4568,1.4568,1.4574,1.4574,1.4574,1.4593,1.4593,1.4594,1.4594,1.4597,1.4597,1.4597,0,0,0,0,0,0,0,0,0,0,0,0,0,1.4574,1.4573,1.4568,1.4578,1.4579,1.4574,1.4574,1.4574,1.4592,1.4593,1.4594,1.4594,1.4597,1.4597,1.4597,1.4581,0,0,1.4595,1.4595,0,0,0,0,0,0,0,0,1.4574,1.4574,1.4577,1.4578,1.4579,1.4583,1.4577,1.4576,1.4592,1.4587,1.4594,1.4595,1.4592,1.4592,1.4591,1.4581,1.4581,1.4595,1.4595,1.4595,1.4594,0,0,0,0,0,0,0,1.4574,1.4574,1.457,1.4577,1.4578,1.4583,1.4583,1.4577,1.4586,1.4588,1.4589,1.459,1.4593,1.4592,1.4592,1.4581,1.4595,1.4595,1.4594,1.4594,1.456,1.456,0,0,0,0,0,0,1.4573,1.4574,1.457,1.457,1.4578,1.4582,1.4583,1.4581,1.4586,1.4587,1.4589,1.4591,1.4592,1.4592,1.4592,1.4575,1.4595,1.4594,1.4594,1.4561,1.456,1.456,0,0,0,0,0,0,1.4573,1.4572,1.457,1.4572,1.4572,1.4581,1.4579,1.4581,1.458,1.4587,1.4589,1.4587,1.4593,1.4593,1.4584,1.4576,1.4594,1.4594,1.4562,1.4561,1.456,1.4541,0,0,0,0,0,0,1.4573,1.4572,1.4566,1.4572,1.4572,1.4562,1.4578,1.458,1.458,1.4581,1.4585,1.4587,1.4593,1.4585,1.4584,1.4575,1.4593,1.4563,1.4561,1.456,1.4542,1.4539,1.4537,0,0,0,0,0,1.4573,1.4559,1.4565,1.4565,1.4565,1.4561,1.4561,1.457,1.4579,1.4573,1.4578,1.4586,1.4577,1.4584,1.4583,1.4574,1.4563,1.4562,1.456,1.4544,1.454,1.4537,0,0,0,0,0,0,1.455,1.456,1.4567,1.4555,1.4558,1.4565,1.4557,1.4566,1.4565,1.4567,1.4577,1.4578,1.4568,1.457,1.4578,1.456,1.4572,1.457,1.4559,1.4556,1.4553,1.4553,1.4593,0,0,0,0,0,1.4544,1.4541,1.4549,1.4538,1.4539,1.4548,1.4547,1.4554,1.4556,1.4557,1.4561,1.4562,1.456,1.4558,1.4556,1.4543,1.4545,1.4537,1.4534,1.4532,1.453,1.4525,1.4522,1.4555,1.4555,1.4555,0,0,1.4531,1.4536,1.4533,1.4534,1.4536,1.4533,1.4549,1.4543,1.4541,1.4556,1.4549,1.4552,1.4555,1.4544,1.454,1.4546,1.4522,1.453,1.4528,1.4528,1.4524,1.4521,1.4518,1.4554,1.4554,1.4554,0,0,1.4505,1.4509,1.4501,1.4503,1.4508,1.4514,1.4512,1.4519,1.4522,1.4515,1.4527,1.4524,1.4519,1.4521,1.4522,1.45,1.4508,1.4499,1.4485,1.448,1.4478,1.4475,1.4469,1.4466,1.4498,1.4497,1.4497,0,1.4488,1.4484,1.4495,1.449,1.4491,1.4506,1.4498,1.45,1.4503,1.4503,1.451,1.4506,1.4508,1.45,1.4495,1.4494,1.4493,1.4498,1.4477,1.4475,1.4473,1.4467,1.4464,1.4496,1.4496,1.4497,1.4497,0,1.4463,1.446,1.4453,1.4458,1.4458,1.4451,1.4462,1.446,1.4468,1.4474,1.4468,1.4472,1.4472,1.4471,1.4477,1.4464,1.4467,1.4475,1.4487,1.4469,1.4463,1.4461,1.4495,1.4495,1.4496,1.4496,0,0,1.4422,1.4435,1.4432,1.4435,1.4442,1.444,1.4435,1.4437,1.4436,1.4438,1.4435,1.4432,1.444,1.4441,1.4448,1.4443,1.4428,1.4452,1.4453,1.4449,1.4415,1.4409,1.4406,1.4434,1.4433,1.4433,1.4415,0,1.4399,1.4391,1.4403,1.4393,1.4391,1.4406,1.4402,1.4406,1.4412,1.4412,1.4418,1.4416,1.4427,1.4428,1.4424,1.4431,1.4421,1.4432,1.4431,1.4431,1.443,1.4403,1.4396,1.4379,1.4413,1.4413,1.4412,0,1.437,1.4373,1.4363,1.4374,1.4373,1.4369,1.4373,1.4372,1.4377,1.4382,1.4384,1.4393,1.439,1.4402,1.4397,1.4404,1.4405,1.4408,1.4408,1.4408,1.442,1.4403,1.4374,1.4371,1.4409,1.4409,1.4409,0,1.4342,1.4344,1.4339,1.4341,1.4352,1.4349,1.4354,1.436,1.4361,1.4364,1.4365,1.4367,1.4368,1.437,1.438,1.4387,1.4375,1.4387,1.4379,1.4379,1.4375,1.4375,1.4346,1.4375,1.4375,1.4375,1.4375,0,1.4315,1.4309,1.4327,1.4324,1.4318,1.4331,1.4325,1.4331,1.4337,1.4336,1.4349,1.4347,1.436,1.436,1.4368,1.4364,1.4364,1.4368,1.437,1.4367,1.4367,1.4368,1.4369,1.4374,1.4374,1.4374,1.4375,0,1.4283,1.4294,1.429,1.4302,1.4305,1.4301,1.4311,1.4309,1.4317,1.4315,1.4315,1.4327,1.4328,1.4339,1.4341,1.4347,1.434,1.4344,1.4338,1.434,1.4332,1.4333,1.4302,1.4299,1.433,1.4329,1.4329,0,1.4265,1.4261,1.4273,1.4274,1.4279,1.4279,1.4281,1.4294,1.4295,1.4303,1.43,1.4303,1.4305,1.4306,1.4315,1.4318,1.4323,1.4312,1.4323,1.4321,1.4324,1.4324,1.4324,1.4309,1.4309,1.4309,1.4308,0,1.4232,1.4239,1.4241,1.4247,1.4249,1.4253,1.4258,1.4258,1.4273,1.4273,1.4276,1.4278,1.4282,1.4285,1.4289,1.4294,1.4304,1.4305,1.4304,1.43,1.4298,1.43,1.4333,1.4305,1.4306,1.4306,1.4306,1.4306,1.4207,1.4205,1.4215,1.4217,1.4223,1.4228,1.4228,1.4236,1.4238,1.4244,1.4252,1.4253,1.426,1.4268,1.4272,1.4274,1.4279,1.4277,1.4276,1.4275,1.4274,1.4298,1.4274,1.4274,1.4275,1.4275,1.4275,0,1.4176,1.4184,1.4186,1.4194,1.4197,1.4207,1.4214,1.4215,1.4217,1.4223,1.4227,1.423,1.4233,1.4243,1.4247,1.4247,1.4251,1.4247,1.4248,1.4249,1.4268,1.427,1.4244,1.4244,1.4244,1.4244,1.4244,1.4244,1.4161,1.4158,1.4167,1.4168,1.4175,1.4177,1.4181,1.4186,1.4191,1.4195,1.4198,1.4205,1.4214,1.4219,1.4223,1.4226,1.4227,1.4222,1.4226,1.4244,1.4247,1.425,1.4251,1.4222,1.4222,1.4206,1.4206,1.4206]}]]